Location: ???????
(30.0434°N, 31.2618°E)
Time: 12:33:29
(UTC+00:00)

Daily predictions for brighter satellites

Satellite Brightness Start Highest point End
(mag) Time Altitude Azimuth Time Altitude Azimuth Time Altitude Azimuth
ATLAS 2A CENTAUR R/B 4.5 16:59:08 10° W 17:08:19 69° S 17:30:37 10° ESE
USA 186 2.0 17:22:46 10° SSE 17:25:30 42° ENE 17:28:23 10° N
Cosmos 1025 Rocket 4.0 17:22:27 10° SSE 17:26:02 27° E 17:29:39 10° NNE
Cosmos 724 4.2 17:20:46 10° SSW 17:26:34 73° ESE 17:32:19 10° NNE
GPS 2-17 Rocket1 4.5 17:23:21 10° SW 17:26:40 21° S 17:30:02 10° SE
CZ-4C R/B 3.4 17:24:11 10° N 17:27:33 65° WNW 17:30:57 10° SSW
Cosmos 1238 Rocket 4.1 17:21:42 10° N 17:27:55 89° E 17:34:23 10° S
Cosmos 1833 Rocket 4.2 17:26:28 10° SE 17:29:34 15° E 17:32:41 10° ENE
Okean 2 Rocket 4.3 17:26:10 10° NNW 17:30:22 45° W 17:34:32 10° SSW
Cosmos 1745 Rocket 4.3 17:25:52 10° N 17:31:48 48° E 17:37:46 10° SSE
Cosmos 1371 Rocket 4.1 17:27:18 10° SSW 17:32:30 88° WNW 17:37:47 10° NNE
CZ-4 R/B 2.9 17:32:19 10° SSW 17:36:11 38° W 17:40:03 10° NNW
Atlas Centaur 2 2.7 17:33:17 10° W 17:39:22 47° SSW 17:43:57 11° SE
Meteor 2-5 Rocket 3.9 17:35:24 10° S 17:40:43 52° E 17:46:05 10° NNE
COBE Rocket 3.7 17:36:21 10° SSE 17:40:59 80° ENE 17:45:37 10° N
Delta 2 Rocket 3.7 17:38:13 10° W 17:41:34 48° NNW 17:44:47 10° ENE
Yuri Rocket 2.9 17:40:06 10° W 17:44:21 69° S 17:48:21 11° E
JB-3 4.1 17:44:34 10° NNE 17:48:24 76° E 17:52:11 10° S
Resurs 01 Rocket 3.0 17:46:10 12° ESE 17:49:07 22° ENE 17:52:33 10° NNE
IRS-1C Rocket 4.1 17:44:39 10° SSE 17:49:54 87° ENE 17:55:11 10° NNW
Cosmos 1300 2.6 17:46:57 10° N 17:50:45 89° E 17:54:31 10° S
Cosmos 1455 Rocket 3.6 17:50:34 10° NNE 17:54:35 37° E 17:57:45 15° SE
Cosmos 1140 Rocket 3.4 17:50:01 10° NNW 17:55:12 86° ENE 18:00:19 10° SSE
Cosmos 1023 Rocket 4.4 17:50:24 10° NNW 17:55:33 89° WSW 18:00:38 10° SSE
Cosmos 407 Rocket 3.4 17:51:26 10° NNW 17:56:35 82° ENE 18:01:38 10° SSE
Meteor 1-24 Rocket 3.6 17:52:58 10° S 17:58:12 66° E 18:03:33 10° NNE
Okean 1 Rocket 3.9 17:54:20 10° NNW 17:58:38 52° W 18:02:54 10° SSW
Cosmos 1190 Rocket 4.3 17:53:32 10° N 17:58:43 53° ENE 18:02:53 15° SE
Lacrosse 5 3.3 17:56:01 10° N 18:00:12 25° NE 18:03:40 13° E
KM-V1 3.1 17:57:21 10° WSW 18:00:12 56° SSE 18:01:15 25° E
Okean O Rocket 4.4 17:58:11 10° SW 18:00:41 15° W 18:03:13 10° WNW
CZ-4B R/B 2.0 17:59:47 10° NE 18:02:19 28° E 18:03:08 24° SE
ATLAS 2A CENTAUR R/B 1.6 18:00:53 10° WSW 18:02:48 30° S 18:03:02 28° SSE
Cosmos 2082 Rocket 4.1 18:03:52 11° E 18:03:52 11° E 18:04:28 10° E
Okean-O 3.2 17:59:35 10° S 18:03:55 57° W 18:08:16 10° NNW
IGS 5A 3.5 18:01:29 10° S 18:05:37 82° W 18:09:45 10° NNW
Cosmos 1953 4.3 18:05:41 10° NNW 18:09:06 29° W 18:12:33 10° SSW
H-2A R/B 2.4 18:05:31 10° S 18:09:17 70° WSW 18:13:05 10° NNW
ASTRO E2 3.3 18:06:16 10° SW 18:09:48 33° SSE 18:11:18 24° ESE
USA 267 4.4 18:06:03 10° E 18:10:25 19° ESE 18:11:07 19° SE
GOES 2 Rocket 3.5 18:09:47 10° WSW 18:14:05 49° SSE 18:17:53 17° E
Meteor 2-10 Rocket 3.8 18:10:13 10° NNW 18:15:09 64° W 18:20:10 10° S
DELTA 2 R/B (1) 4.4 18:10:22 10° WNW 18:15:33 40° SW 18:19:03 19° SSE
Cosmos 1536 Rocket 4.3 18:14:10 24° SE 18:15:46 31° E 18:19:35 10° NNE
Spot 2 4.5 18:11:55 11° S 18:16:21 74° WSW 18:21:15 10° NNW
Cosmos 1271 Rocket 3.7 18:14:21 10° NNE 18:17:48 29° ENE 18:18:44 26° ESE
Cosmos 2315 Rocket 4.1 18:12:03 10° S 18:18:23 83° W 18:24:42 10° N
MetOp-A 3.9 18:15:20 12° S 18:19:16 66° WSW 18:23:53 10° NNW
Cosmos 1709 Rocket 4.0 18:14:04 10° N 18:20:20 76° E 18:25:42 15° S
Cosmos 1975 Rocket 4.2 18:17:30 10° SSW 18:21:45 45° W 18:26:00 10° N
H-2A R/B 2.5 18:18:11 10° N 18:22:38 68° WNW 18:27:05 10° SSW
Cosmos 676 Rocket 4.1 18:22:14 10° N 18:27:27 58° ENE 18:29:59 29° SE
Cosmos 1455 2.8 18:23:56 10° NNE 18:27:31 38° E 18:28:11 35° ESE
Ariane Rocket 3.4 18:26:13 27° SE 18:28:31 45° ENE 18:33:21 10° N
Tiangong 2.2 18:34:02 10° NW 18:36:59 35° NNE 18:37:34 32° NE
GEOS 3 Rocket 4.0 18:36:11 30° ESE 18:38:21 48° NE 18:43:14 10° NNW
Cosmos 1954 Rocket 3.9 18:36:56 10° NNW 18:42:11 89° WSW 18:44:37 32° SSE
MetOp-B 4.3 18:42:35 35° SE 18:44:36 56° ENE 18:49:49 10° N
Cosmos 1656 4.2 18:40:06 10° N 18:45:16 40° ENE 18:46:48 33° ESE
ATLAS 2AS CENTAUR R/B 2.6 18:38:39 10° NNW 18:45:32 70° ENE 18:48:29 34° SE
Cosmos 1544 Rocket 3.4 18:42:48 10° N 18:47:09 81° E 18:48:23 46° SSE
Lacrosse 5 rocket 1.7 18:45:36 10° NW 18:49:27 53° SW 18:50:20 43° SSW
USA 32 4.4 18:45:11 13° SSW 18:49:45 64° W 18:54:56 10° N
Skynet4D Del rocket 4.5 18:45:04 10° W 18:50:16 37° SSW 18:51:43 32° SSE
Cosmos 1331 Rocket 3.9 18:49:37 22° S 18:53:03 79° ESE 18:58:21 10° NNE
SPOT 1/Viking Rocket 3.6 18:53:19 33° S 18:55:41 74° WSW 19:00:50 10° NNW
Cosmos 1980 Rocket 4.4 18:55:23 10° NE 18:56:11 10° NE 18:56:59 10° ENE
COSMOS 2406 3.2 18:54:08 35° SSE 18:56:22 58° ESE 19:02:01 10° NNE
Cosmos 1697 Rocket 4.1 18:52:33 10° N 18:56:55 23° ENE 18:57:48 22° ENE
Spot 2 Rocket 4.3 18:58:36 34° E 18:59:04 35° ENE 19:03:39 10° N
Aurora 2 Rocket 4.2 18:57:26 10° WSW 19:07:22 60° S 19:10:32 38° ESE
SPOT 5 3.3 19:10:33 39° ENE 19:10:33 39° ENE 19:14:10 10° N
Cosmos 1833 Rocket 3.4 19:07:31 10° SW 19:12:56 52° WNW 19:18:25 10° N
CZ-2C R/B 4.0 19:10:02 10° NNE 19:13:45 51° ENE 19:13:45 51° ENE
Cosmos 1703 3.9 19:16:02 49° W 19:16:19 50° W 19:20:04 10° N
Terra 2.8 19:17:35 32° ENE 19:17:35 32° ENE 19:21:18 10° N
Milstar 3 4.3 19:12:00 10° WSW 19:22:07 66° SSE 19:42:39 10° E
ERS-1 Rocket 3.2 19:22:34 52° ENE 19:22:34 52° ENE 19:27:17 10° N
Cosmos 1302 Rocket 3.9 19:23:43 68° E 19:23:43 68° E 19:28:36 10° NNE
Helios 1A Rocket 3.8 19:24:58 41° NNE 19:24:58 41° NNE 19:27:56 10° N
Resurs 01 Rocket 3.5 19:23:43 19° SW 19:25:25 24° W 19:29:01 10° NW
RESURS DK-1 3.1 19:22:20 10° NNW 19:25:28 45° NNE 19:25:28 45° NNE
Atlas Centaur 2 4.1 19:25:28 10° WSW 19:26:28 11° SW 19:26:28 11° SW
Cosmos 2184 Rocket 4.0 19:29:38 10° N 19:35:50 76° W 19:37:07 57° SSW
Cosmos 2228 3.7 19:35:17 10° N 19:38:27 50° NNW 19:38:27 50° NNW
Lacrosse 5 2.7 19:38:29 10° NW 19:42:52 40° WSW 19:42:52 40° WSW
Cosmos 2082 Rocket 2.3 19:45:37 60° WSW 19:46:31 71° WNW 19:52:13 10° NNE
Mugunghwa Rocket 4.5 19:42:14 10° WSW 19:50:18 69° S 19:51:30 61° SE
USA 267 3.2 19:47:08 10° NE 19:53:42 83° NW 19:58:11 22° SW
Cosmos 2360 4.3 19:48:34 10° NNW 19:53:50 70° NNE 19:53:50 70° NNE
ARIANE 5 R/B 3.9 19:58:11 37° N 19:58:11 37° N 20:00:57 10° N
Cosmos 2341 Rocket 4.4 19:56:45 10° N 20:02:07 51° ENE 20:02:07 51° ENE
Cosmos 2181 Rocket 4.2 20:22:33 63° NNE 20:22:33 63° NNE 20:27:40 10° N
SL-16 R/B 4.1 20:36:23 10° NNE 20:39:33 20° NE 20:39:33 20° NE
Cosmos 1980 Rocket 3.0 20:35:09 10° NNW 20:39:07 47° NNW 20:39:07 47° NNW
Cosmos 1697 Rocket 4.0 20:35:48 10° NW 20:39:32 32° WNW 20:39:32 32° WNW
Cosmos 2344 4.5 20:35:05 10° NNW 20:45:19 88° ENE 20:48:13 62° SSE
ATLAS 5 CENTAUR R/B 4.3 20:48:01 13° NNW 20:48:01 13° NNW 20:48:45 10° N
Terra 4.3 20:56:28 15° WNW 20:56:28 15° WNW 20:58:02 10° NW
ADEOS Rocket 4.1 20:58:46 43° ENE 20:58:46 43° ENE 21:05:22 10° N
Cosmos 2322 Rocket 3.9 21:11:19 10° N 21:14:36 26° NE 21:14:36 26° NE
SJ 16-02 4.1 21:34:29 10° N 21:35:23 16° N 21:35:23 16° N
Cosmos 2360 Rocket 3.8 21:46:59 10° N 21:50:16 29° NNE 21:50:16 29° NNE
USA 234 4.0 22:04:42 47° NE 22:04:42 47° NE 22:10:54 10° NNW
SL-16 R/B 4.2 22:19:30 10° NW 22:21:23 20° NW 22:21:23 20° NW
Cosmos 2219 Rocket 3.8 22:24:19 10° N 22:28:08 29° NE 22:28:08 29° NE
NOSS 3-2 (A) 4.5 22:54:56 37° N 22:54:56 37° N 22:58:44 10° NNE
Cosmos 2322 Rocket 4.5 22:55:22 10° NW 22:56:24 15° NW 22:56:24 15° NW
CENTAUR R/B 3.3 23:09:34 41° NNW 23:09:34 41° NNW 23:14:31 10° NNE
Cosmos 2333 Rocket 3.7 23:10:03 10° NNW 23:12:52 30° NW 23:12:52 30° NW
Cosmos 2227 Rocket 3.1 23:29:43 44° ENE 23:29:43 44° ENE 23:33:58 10° NNE
MOS 1 Rocket 4.5 23:36:00 44° NE 23:36:00 44° NE 23:40:18 10° N
Resurs 1-4 Rocket 2.9 23:34:11 10° N 23:38:01 48° N 23:38:01 48° N
NOSS 3-2 (C) 4.1 23:41:34 40° NNW 23:41:34 40° NNW 23:46:16 10° NNE
CZ-2D R/B 2.9 23:42:53 10° N 23:46:40 46° NNW 23:46:40 46° NNW
OAO 3 Rocket 4.4 23:49:30 41° NE 23:49:30 41° NE 23:53:20 10° ENE
SL-16 R/B 2.8 23:49:37 59° ESE 23:50:24 65° ENE 23:56:35 10° N
COSMOS 2455 4.3 23:45:23 10° N 23:50:48 34° ENE 23:55:52 11° ESE
